Tracking 18957 objects as of 23-Jan-2018
HD Live streaming from Space Station
objects crossing your sky now

FENGYUN 1C DEB

Track FENGYUN 1C DEB now!
10-day predictions


NORAD ID: 41001
Int'l Code: 1999-025EXF
Perigee: 811.5 km
Apogee: 864.8 km
Inclination: 99.0 °
Period: 101.5 minutes
Semi major axis: 7209 km
RCS: Unknown
Launch date: May 10, 1999
Source: People's Republic of China (PRC)
Launch site: Taiyaun Space Center, China (TSC)

Note: This is SATELLITE DEBRIS
aabbcc
Your satellite tracking list
Your tracking list is empty




NASA's NSSDC Master Catalog

Two Line Element Set (TLE):
1 41001U 99025EXF 18021.22095677  .00001333  00000-0  66444-3 0  9998
2 41001  98.9883  21.4068 0036927  13.0885 347.1857 14.18323233200722
Source of the keplerian elements: AFSPC